Location: Casilda
(33.0440°S, 61.1680°W)
Time: 14:30:36
(UTC-03:00)

ISS - Pass Details

Date: 22 June 2017
Orbit: 401 x 408 km, 51.6° (Epoch: 28 June)

Event Time Altitude Azimuth Distance (km) Brightness Sun altitude
Exits shadow 05:48:29 15° 48° (NE) 1,183 -0.9 -28.3°
Drops below altitude 10° 05:49:10 10° 47° (NE) 1,459 -0.3 -28.2°
Sets 05:51:14 0° 46° (NE) 2,312 0.9 -27.8°
